This demonstration page uses our WeatherBlox Daily Observations layout. Learn more.

Left ArrowRight Arrow

38.80484, -77.04692

Hourly Observations for April 29, 2016

Temp ( °F °C ) Dew Point ( °F °C ) Humidity (%) Winds ( mph kmh ) Pressure ( in mb ) Visibility ( mi km ) Precip ( " mm )
12:00 am 00:00 Cloudy 48 9 45 7 87 87 NE 9 15 30.03 1017 10 16 0.00 0.00
12:40 am 00:40 Cloudy 48 9 45 7 87 87 ENE 8 13 30.03 1017 10 16 0.00 0.00
12:52 am 00:52 Cloudy 48 8.9 45 7.2 89 89 ENE 9 15 30.01 1016 10 16 0.00 0.00
1:52 am 01:52 Cloudy 48 8.9 45 7.2 89 89 NE 8 13 30.01 1016 10 16 0.00 0.00
2:20 am 02:20 Cloudy 48 9 45 7 87 87 ENE 10 17 30.00 1016 10 16 0.00 0.00
2:52 am 02:52 Cloudy 48 8.9 45 7.2 89 89 NNE 12 19 30.00 1016 10 16 0.00 0.00
3:17 am 03:17 Cloudy with Mist and Fog 48 8.9 46 7.8 93 93 NE 9 15 30.00 1016 5 8 0.00 0.00
3:52 am 03:52 Cloudy with Mist and Fog 48 8.9 46 7.8 93 93 ENE 9 15 30.01 1016 5 8 0.00 0.00
4:52 am 04:52 Cloudy with Mist and Fog 48 8.9 46 7.8 93 93 ENE 7 11 30.02 1017 5 8 0.00 0.00
5:52 am 05:52 Cloudy 49 9.4 46 7.8 90 90 ENE 9 15 30.03 1017 9 14 0.00 0.00
6:19 am 06:19 Cloudy with Light Rain 49 9.4 46 7.8 90 90 ENE 7 11 30.03 1017 9 14 0.00 0.03
6:22 am 06:22 Cloudy with Light Rain 48 9 46 8 94 94 NE 8 13 30.03 1017 5 8 0.00 0.00
6:52 am 06:52 Cloudy with Mist and Fog 49 9.4 46 7.8 90 90 NE 10 17 30.04 1017 5 8 0.00 0.03
7:52 am 07:52 Cloudy with Mist and Fog 48 8.9 46 7.8 93 93 NE 8 13 30.05 1018 3 5 0.00 0.00
8:52 am 08:52 Cloudy with Mist and Fog 49 9.4 46 7.8 90 90 NNE 7 11 30.06 1018 3 5 0.00 0.00
9:36 am 09:36 Cloudy with Drizzle 48 9 46 8 94 94 NE 6 9 30.06 1018 3 4 0.00 0.00
9:52 am 09:52 Cloudy with Drizzle 49 9.4 47 8.3 93 93 ENE 8 13 30.07 1018 3 4 0.00 0.03
10:41 am 10:41 Cloudy with Light Rain 50 10 47 8.3 89 89 NE 7 11 30.09 1019 3 5 0.00 0.03
10:52 am 10:52 Cloudy with Drizzle 50 10 48 8.9 93 93 ENE 7 11 30.07 1018 3 5 0.01 0.25
11:04 am 11:04 Cloudy with Drizzle 50 10 48 9 94 94 E 3 6 30.09 1019 4 6 0.00 0.00
11:39 am 11:39 Cloudy with Mist and Fog 51 10.6 48 8.9 89 89 ENE 8 13 30.06 1018 6 10 0.00 0.03
11:52 am 11:52 Cloudy 51 10.6 48 8.9 89 89 ENE 8 13 30.07 1018 7 11 0.00 0.03
12:52 pm 12:52 Cloudy 52 11.1 48 8.9 86 86 E 8 13 30.04 1017 10 16 0.00 0.00
1:52 pm 13:52 Cloudy 53 11.7 49 9.4 86 86 Calm 30.06 1018 10 16 0.00 0.00
2:52 pm 14:52 Cloudy 54 12.2 49 9.4 83 83 ENE 8 13 30.04 1017 10 16 0.00 0.00
3:52 pm 15:52 Cloudy 55 12.8 49 9.4 80 80 E 3 6 30.04 1017 10 16 0.00 0.00
4:22 pm 16:22 Cloudy 55 13 48 9 77 77 E 3 6 30.03 1017 10 16 0.00 0.00
4:40 pm 16:40 Cloudy 55 13 48 9 77 77 E 6 9 30.03 1017 10 16 0.00 0.00
4:52 pm 16:52 Cloudy 55 12.8 49 9.4 80 80 ESE 5 7 30.03 1017 10 16 0.00 0.00
5:11 pm 17:11 Cloudy 55 12.8 49 9.4 80 80 E 5 7 30.03 1017 10 16 0.00 0.00
5:39 pm 17:39 Cloudy 55 12.8 50 10 83 83 E 6 9 30.03 1017 10 16 0.00 0.00
5:52 pm 17:52 Cloudy 55 12.8 50 10 83 83 ENE 10 17 30.02 1017 10 16 0.00 0.00
6:52 pm 18:52 Cloudy 54 12.2 50 10 87 87 ENE 8 13 30.04 1017 10 16 0.00 0.00
7:52 pm 19:52 Cloudy 54 12.2 50 10 87 87 NE 9 15 30.06 1018 10 16 0.00 0.00
8:18 pm 20:18 Cloudy with Drizzle 54 12 52 11 94 94 NE 8 13 30.09 1019 5 8 0.00 0.00
8:22 pm 20:22 Cloudy with Drizzle 54 12 52 11 94 94 NE 9 15 30.09 1019 4 6 0.00 0.00
8:34 pm 20:34 Cloudy 54 12 52 11 94 94 ENE 9 15 30.09 1019 8 13 0.00 0.00
8:40 pm 20:40 Cloudy 54 12 52 11 94 94 ENE 8 13 30.09 1019 10 16 0.00 0.00
8:42 pm 20:42 Cloudy 54 12 52 11 94 94 ENE 9 15 30.09 1019 10 16 0.00 0.00
8:44 pm 20:44 Cloudy 54 12 52 11 94 94 ENE 9 15 30.09 1019 10 16 0.00 0.00
8:52 pm 20:52 Cloudy 53 11.7 50 10 89 89 E 8 13 30.07 1018 7 11 0.00 0.03
9:13 pm 21:13 Cloudy 53 11.7 50 10 89 89 ENE 10 17 30.09 1019 10 16 0.00 0.03
9:52 pm 21:52 Cloudy 53 11.7 50 10 89 89 ENE 6 9 30.11 1020 10 16 0.00 0.03
10:34 pm 22:34 Cloudy 54 12 52 11 94 94 E 7 11 30.12 1020 10 16 0.00 0.00
10:52 pm 22:52 Cloudy 53 11.7 50 10 89 89 ENE 6 9 30.10 1019 10 16 0.00 0.00
11:01 pm 23:01 Cloudy 53 11.7 50 10 89 89 ENE 8 13 30.09 1019 10 16 0.00 0.00
11:28 pm 23:28 Cloudy 54 12 50 10 88 88 E 7 11 30.12 1020 10 16 0.00 0.00
11:36 pm 23:36 Cloudy 53 11.7 50 10 89 89 NE 7 11 30.12 1020 10 16 0.00 0.00
11:52 pm 23:52 Cloudy 53 11.7 50 10 89 89 ENE 6 9 30.11 1020 10 16 0.00 0.00

Powered by AerisWeather